{"data":{"norad_id":62097,"epoch":"2026-09-21T03:02:01.631328Z","epoch_age_seconds":127001,"freshness":"FRESH","line1":"1 62097U 24220K   26264.12640777  .00128488  00000+0  98813-3 0  9990","line2":"2 62097  42.9988 304.7449 0001270 211.7290 148.3501 15.70871351105791","mean_motion":15.70871351,"eccentricity":0.000127,"inclination_deg":42.9988,"raan_deg":304.7449,"arg_perigee_deg":211.729,"mean_anomaly_deg":148.3501,"bstar":0.00098813,"rev_number":10579,"period_min":91.668868942279,"perigee_km":355.5501691415,"apogee_km":357.26074292534,"semimajor_km":6734.5424560334,"source":"CELESTRAK","updated_at":"2026-09-22T09:00:49.497966Z"}}